Presure
128 128 131 132 131 129 126 126 127 127 126 122 126 122 121 125 124 126 126 125 129 123 117 120 126 121 117 150 124 135 139 138 127 129 132 129 136 135 140 146 184 138 198 218 211
122 122 121 121 120 123 125 120 120 120 121 122 122 125 123 123 123 124 126 123 125 122 125 127 119 117 124 129 119 130 124 144 132 130 133 128 140 131 138 150 200 188 183 203 218
123 124 123 125 125 125 125 126 126 125 126 126 123 119 124 126 127 126 123 121 125 121 119 127 123 123 139 133 124 121 130 124 130 131 125 132 125 142 142 141 193 203 177 191 209
120 121 119 122 120 119 133 135 135 131 123 125 127 127 129 130 129 128 127 131 129 127 126 132 126 124 127 158 135 112 112 133 141 123 124 130 131 134 136 135 145 214 183 190 199
127 125 120 125 122 121 121 122 121 126 127 126 126 126 121 122 123 123 123 126 126 123 124 125 137 141 132 137 124 139 133 125 142 145 129 124 137 131 140 134 136 179 177 173 182
131 125 125 125 127 130 132 131 126 127 120 122 123 121 118 119 122 122 123 127 131 127 127 135 135 140 139 137 127 129 120 129 138 146 133 133 119 137 137 126 134 142 199 143 185
130 127 127 127 134 134 129 124 128 130 131 126 122 119 120 123 126 128 127 128 130 140 135 135 134 138 131 154 135 114 119 154 130 146 145 129 138 122 123 138 135 135 196 183 190
122 133 134 125 125 126 124 125 128 130 131 132 132 135 132 128 128 123 127 133 114 106 119 140 123 149 134 153 146 116 157 131 142 141 133 127 130 145 129 131 131 142 145 189 185
133 133 128 127 129 134 135 135 132 133 131 132 141 128 96 133 139 130 110 136 115 135 149 121 135 135 132 138 140 144 134 138 127 130 136 136 129 139 131 127 126 137 137 164 178
125 124 142 142 130 130 124 131 126 135 141 142 139 118 132 138 137 118 133 150 148 135 126 124 126 128 138 136 143 124 136 120 124 130 139 131 154 140 158 122 119 130 142 135 184
133 128 130 133 135 128 133 137 142 139 124 139 136 128 141 139 144 143 137 128 118 112 95 118 123 147 150 122 142 119 153 120 125 131 141 143 147 162 163 137 129 133 139 141 138
130 133 134 134 134 139 142 140 144 136 119 124 146 146 125 119 123 125 122 124 124 123 113 110 135 140 134 130 159 150 136 137 127 125 131 129 127 145 145 143 137 130 138 139 139
135 136 141 142 143 147 131 121 123 134 141 131 134 129 127 128 130 133 131 132 134 134 144 128 133 109 111 145 111 150 149 150 122 147 141 137 132 130 150 152 138 138 140 131 139
147 143 131 139 129 140 143 139 176 179 126 127 126 127 133 123 130 132 143 151 145 136 98 166 162 120 185 179 103 142 109 111 168 180 180 143 132 149 142 155 132 142 136 141 137
131 166 167 164 143 134 139 136 124 123 123 129 133 135 150 156 146 148 156 202 198 193 187 180 101 174 188 109 155 173 121 176 174 104 181 181 173 147 150 144 131 141 163 135 137
145 144 146 130 130 120 121 131 134 147 158 187 162 206 245 207 245 243 241 242 242 240 235 227 114 112 213 110 149 177 111 132 172 106 174 173 178 182 154 130 132 140 152 151 133
142 131 131 133 219 249 232 226 207 246 243 235 231 195 218 219 219 215 216 215 214 218 223 223 82 217 214 186 227 171 237 210 172 190 185 164 152 116 164 180 159 141 129 153 143
244 241 237 230 228 228 224 221 220 216 213 212 210 204 200 198 196 196 196 197 197 195 195 200 202 204 205 205 208 205 204 105 103 257 237 122 200 184 206 113 116 181 164 135 142
218 216 215 211 210 206 204 202 199 197 196 194 189 187 187 187 185 185 186 185 185 186 184 185 184 183 180 93 187 190 193 197 199 205 208 233 232 233 223 168 205 221 198 136 139
197 196 192 192 193 191 189 200 224 225 222 219 219 217 215 212 207 211 213 212 210 208 210 209 209 218 201 186 185 179 180 142 187 189 196 168 196 196 219 227 229 203 218 119 127
186 183 185 184 184 184 199 188 193 194 196 195 202 199 189 202 210 212 208 208 202 199 201 200 197 197 201 204 201 198 199 140 177 177 182 188 189 190 193 197 229 211 194 196 123
183 184 181 181 187 201 199 193 194 188 182 184 183 181 173 197 204 202 203 198 192 202 205 199 206 215 190 192 199 209 218 220 222 210 214 218 180 184 187 186 194 201 211 203 192
181 185 179 180 177 195 192 192 184 179 182 180 176 171 175 166 167 197 204 195 202 192 205 202 204 206 211 207 200 202 200 202 201 202 206 210 219 251 193 181 182 189 190 194 224
184 183 177 180 182 180 180 177 176 176 173 170 172 170 168 207 167 205 191 191 203 207 206 202 199 198 196 197 198 195 198 193 193 196 198 193 195 206 214 219 217 177 182 187 190
193 202 194 187 179 178 178 180 179 180 178 180 191 189 197 198 198 189 193 186 205 206 201 199 198 195 191 181 184 190 206 194 198 188 184 192 197 190 196 199 206 238 178 179 184
201 196 189 199 196 192 190 195 195 189 189 195 193 198 208 198 192 201 179 190 180 204 203 200 195 189 188 189 187 191 200 204 212 208 203 198 194 184 189 200 192 199 218 249 176
194 191 192 189 187 187 183 189 204 229 216 220 208 207 204 198 196 199 195 192 191 209 213 197 191 191 172 185 196 195 187 192 192 191 197 195 200 206 209 198 205 203 195 212 244
Wind_Speed
11 11 12 13 13 11 9 10 10 11 10 7 6 2 3 5 4 4 5 5 5 6 7 8 5 10 12 11 9 10 12 12 19 17 19 21 23 25 26 25 21 34 19 21 19
6 6 5 5 6 6 6 6 6 6 6 4 3 2 3 3 6 8 8 8 7 7 4 3 9 8 9 10 9 13 15 17 17 19 21 23 30 25 27 32 23 21 19 20 16
2 3 2 2 3 3 2 2 2 1 1 0 4 9 8 7 7 7 9 11 10 6 6 6 8 12 8 12 14 15 16 15 19 24 22 24 25 31 31 33 27 17 18 18 21
4 3 3 2 2 1 2 2 2 2 4 4 5 9 12 10 12 10 10 12 12 12 13 13 8 13 10 14 16 8 10 23 22 19 22 24 24 26 26 30 35 22 28 20 24
8 8 7 7 7 7 7 6 6 5 6 7 8 12 17 14 15 17 15 19 15 15 16 13 19 17 14 15 9 15 20 21 23 21 21 21 25 25 25 27 34 32 29 27 24
10 11 11 12 13 13 12 11 10 9 9 9 11 16 20 19 17 19 21 22 25 19 19 21 18 20 21 14 14 14 17 20 25 21 18 20 21 29 25 23 30 32 27 35 22
15 15 16 17 19 19 16 14 16 16 13 9 12 19 22 26 23 24 28 27 30 34 25 22 17 18 15 32 9 9 20 22 21 22 20 17 22 25 22 29 26 25 29 24 18
14 21 21 18 19 20 19 20 21 23 20 17 18 22 25 27 25 18 25 28 20 2 21 34 2 37 10 23 17 15 22 24 23 19 19 15 18 21 25 23 23 24 27 23 21
23 24 22 22 25 29 29 27 27 26 22 20 23 19 13 27 29 22 8 28 21 35 42 18 32 24 14 17 16 5 13 20 21 21 19 17 17 17 19 19 20 22 21 25 19
23 23 33 33 28 30 23 28 23 31 32 30 25 16 25 28 28 26 33 39 37 34 32 29 18 17 25 16 21 10 22 21 22 24 23 16 24 16 20 17 14 20 17 17 17
29 28 30 32 33 31 34 36 38 34 22 31 29 22 31 29 39 43 35 26 27 27 12 24 23 40 40 7 28 16 32 23 25 27 29 24 19 21 17 14 17 21 15 14 18
30 33 34 35 36 40 41 40 42 36 25 28 41 42 22 25 30 31 35 31 30 34 17 8 41 43 33 24 39 32 25 29 23 22 24 19 17 18 12 14 13 18 17 12 14
36 39 41 42 43 47 37 30 33 39 43 35 38 36 30 32 36 40 39 41 41 42 48 37 40 12 10 29 16 36 35 33 24 32 29 29 22 19 18 15 13 18 17 12 11
43 43 37 42 37 44 46 44 53 55 39 40 39 41 42 33 40 42 50 53 47 50 19 52 53 13 47 48 8 32 10 16 37 39 37 30 24 29 18 19 14 18 14 10 11
37 53 53 54 45 43 46 45 41 42 42 47 48 48 53 55 53 52 53 50 51 52 55 54 16 42 46 10 37 49 18 44 38 16 41 39 32 29 26 20 15 20 16 10 10
46 47 48 43 44 40 42 48 50 51 53 55 54 47 28 43 27 27 27 27 27 27 29 32 13 13 40 16 41 48 20 29 45 15 42 41 35 35 26 17 18 19 17 15 10
49 45 47 49 31 27 33 36 36 24 24 27 27 44 30 29 29 30 30 28 28 26 26 28 9 34 35 28 36 32 40 39 33 43 44 35 30 15 32 37 30 21 16 19 15
22 22 22 25 26 25 27 27 26 27 30 29 29 31 32 34 36 38 37 36 35 34 34 33 31 31 32 32 31 35 36 23 21 38 43 17 46 37 38 20 17 33 27 21 22
28 27 28 29 30 30 33 34 33 34 35 35 36 37 39 39 41 41 40 41 40 38 38 40 40 40 41 20 35 37 38 38 38 36 36 39 41 44 44 37 41 38 37 27 27
32 30 32 33 34 33 36 32 24 22 22 25 25 25 25 27 29 27 27 27 27 27 26 30 31 29 35 41 41 45 41 31 40 40 37 30 34 35 44 48 47 43 46 23 29
36 35 35 35 36 35 30 35 31 30 28 29 27 28 29 28 29 28 28 27 29 30 31 30 32 34 33 33 34 38 39 30 45 47 44 40 35 34 40 40 39 42 45 42 33
39 35 37 37 35 31 31 31 29 30 33 33 31 29 34 29 30 31 30 29 33 33 33 35 35 30 35 36 35 33 30 32 34 39 38 38 43 41 40 43 43 40 43 48 47
42 37 38 38 39 34 33 30 32 34 34 35 36 36 34 40 40 31 30 33 32 34 31 35 37 38 33 31 33 33 35 36 36 37 35 37 39 29 44 45 48 44 44 45 50
41 39 40 38 37 38 37 35 35 36 37 39 39 39 39 30 41 31 33 34 32 32 31 34 37 38 38 34 36 38 38 39 39 40 39 42 43 39 39 40 43 50 49 49 50
39 39 39 40 39 40 40 38 38 38 41 42 39 38 35 33 33 35 33 36 33 33 35 38 39 40 42 42 40 41 40 39 43 44 44 46 42 50 47 45 44 41 54 55 55
38 39 40 40 40 39 41 39 37 37 40 41 40 38 35 35 36 34 38 34 37 37 40 41 40 43 46 47 47 49 42 40 35 34 37 41 52 58 59 51 51 51 48 47 60
40 40 40 42 42 40 41 41 39 33 35 36 37 35 36 37 38 37 35 34 35 37 40 44 43 44 45 45 47 46 47 44 39 42 45 50 51 52 55 59 55 54 58 55 49
Wind_Direction
96 95 99 102 108 110 101 102 101 101 100 84 98 78 3 38 360 360 355 13 11 44 25 12 13 354 4 5 350 330 314 325 328 350 356 359 353 6 356 10 360 357 346 323 306
99 95 85 85 80 82 81 52 51 55 59 52 11 290 318 346 327 334 327 332 337 352 8 8 327 341 330 315 338 340 347 334 331 342 3 6 347 6 2 7 348 359 353 357 335
117 124 122 117 109 104 103 101 128 51 83 239 297 308 297 294 286 288 307 315 321 335 330 329 315 319 313 304 334 360 325 335 344 341 2 1 356 344 8 1 354 353 339 34 8
280 275 305 281 292 305 175 181 187 237 289 289 288 288 291 298 302 298 298 300 310 313 307 311 304 311 294 329 300 348 336 329 333 342 351 351 348 348 6 1 8 358 356 29 20
263 265 283 274 284 288 279 276 281 259 265 272 283 287 300 307 309 312 318 306 307 305 310 317 309 310 293 317 312 313 320 329 323 322 333 344 345 347 360 9 7 360 353 14 37
271 270 278 281 278 277 278 272 269 260 276 278 283 284 298 304 305 306 303 301 302 293 300 305 308 310 308 305 293 289 317 306 305 321 323 339 355 332 355 14 6 1 359 10 43
266 269 275 280 281 279 276 284 281 278 276 269 279 287 293 290 293 300 301 302 298 305 305 306 300 304 312 303 264 333 310 323 316 325 327 341 330 342 357 355 2 351 358 3 38
282 271 272 281 281 278 283 287 283 284 285 282 273 271 274 279 289 299 284 293 327 227 323 304 296 305 326 296 303 324 312 297 315 322 325 328 321 328 332 348 353 351 2 356 1
269 274 279 280 279 277 276 274 278 278 279 281 276 273 347 280 285 283 233 287 314 295 290 317 303 300 315 308 313 263 279 307 309 312 311 311 311 325 326 336 347 343 359 9 357
279 278 269 270 277 278 279 282 286 283 285 285 286 285 275 286 294 297 287 283 284 287 299 310 304 310 300 304 304 266 302 296 296 301 297 296 305 311 315 328 11 337 353 15 358
268 271 272 272 272 275 277 279 282 284 287 286 285 279 283 287 289 286 281 281 294 320 207 291 310 283 287 282 287 277 288 284 286 290 295 295 291 296 306 296 317 314 332 8 27
272 271 271 273 276 278 278 279 280 283 289 286 282 282 278 280 280 281 288 286 285 285 307 340 285 287 301 277 284 273 278 278 284 295 297 297 313 306 291 296 299 308 321 355 21
271 272 272 274 275 275 281 286 284 282 281 285 284 286 286 281 281 283 284 286 286 282 279 283 292 156 229 273 270 271 280 270 297 275 281 295 295 304 296 293 290 290 301 326 7
268 269 274 272 275 274 274 276 277 276 287 287 286 288 286 289 284 283 281 281 280 284 262 276 273 227 272 274 224 294 258 296 280 278 278 279 296 285 291 278 283 280 286 309 338
272 275 275 274 270 272 273 275 283 286 288 284 282 283 280 279 279 278 275 273 272 271 273 276 180 270 267 198 270 274 272 280 275 202 276 277 275 280 279 271 273 282 274 299 310
270 270 271 272 273 280 282 278 278 278 278 276 279 277 272 275 269 266 266 261 253 246 247 252 234 226 257 227 266 272 228 267 275 209 271 272 268 269 272 268 271 270 272 273 276
272 271 273 274 272 270 271 271 273 265 263 265 267 275 267 267 269 268 266 265 264 264 261 254 261 254 258 255 257 259 260 259 257 263 265 258 260 251 264 266 263 254 263 258 253
275 274 273 272 273 273 271 271 271 270 268 269 269 269 269 269 268 269 270 268 268 269 269 265 261 260 260 260 259 260 263 252 256 249 253 240 262 262 265 252 253 261 258 257 252
274 272 271 271 272 272 272 273 272 271 272 273 275 273 272 272 273 274 273 274 274 272 271 269 267 265 265 266 261 259 258 258 260 260 258 250 254 259 261 254 257 263 252 257 251
272 271 269 269 270 271 272 272 273 270 268 266 265 265 269 272 270 273 274 274 271 268 267 265 261 259 263 265 263 262 264 261 266 265 256 254 250 256 256 257 259 253 246 245 258
268 268 267 267 268 267 265 264 266 266 267 267 268 269 269 274 273 273 274 276 276 272 265 263 265 265 265 261 257 258 260 266 263 266 265 261 251 244 248 253 247 243 255 252 244
266 265 265 266 266 263 262 261 262 263 265 266 265 264 264 275 272 276 277 276 275 277 280 278 275 268 267 270 271 274 270 269 268 261 259 259 261 255 244 248 250 245 245 249 254
265 264 263 264 264 263 262 262 262 259 262 264 264 261 265 267 272 277 274 275 275 280 276 276 274 276 272 267 270 268 270 271 272 270 270 273 271 275 256 246 247 245 245 246 249
266 264 262 262 263 264 264 261 260 263 262 261 263 263 265 270 271 268 271 275 274 273 269 266 270 271 273 270 268 266 264 265 268 269 269 268 272 265 265 261 256 247 246 245 245
264 263 264 263 260 263 264 264 264 265 266 268 270 270 269 268 266 269 270 275 272 266 264 263 266 270 272 276 274 269 262 267 259 269 271 266 257 267 258 256 255 264 241 244 245
261 260 261 261 261 262 264 267 267 268 268 269 268 267 266 266 264 263 266 269 273 264 262 264 265 270 273 276 279 280 276 272 270 256 251 252 253 259 260 256 249 251 255 255 243
261 260 258 260 260 260 262 266 265 261 259 257 261 264 264 264 264 265 264 263 264 260 252 261 267 268 276 277 276 280 281 285 285 280 273 259 261 267 267 255 250 244 247 248 249